Weather History for Jackson, MN

Change the Weather History Date:

Sunday, February 3, 2013

  Actual Average Record
Temperature  
Mean Temperature 19 °F -  
Max Temperature 26 °F 26 °F 53 °F (2005)
Min Temperature 12 °F 10 °F -14 °F (2007)
Degree Days  
Heating Degree Days 46    
Moisture  
Dew Point 13 °F    
Average Humidity 77    
Maximum Humidity 86    
Minimum Humidity 63    
Precipitation  
Precipitation 0.00 in - - ()
Sea Level Pressure  
Sea Level Pressure 29.97 in    
Wind  
Wind Speed 13 mph (NNW)    
Max Wind Speed 24 mph    
Max Gust Speed 38 mph    
Averages and records for this station are not official NWS values.
T = Trace of Precipitation, MM = Missing Value Source: NWS Daily Summary

Daily Weather History Graph

Daily Weather History Graph

Search for Another Location

Airport:

Trip Planner

Search our weather history database for the weather conditions in past years. The results will help you decide how hot, cold, wet, or windy it might be!

Date:

Astronomy

Feb. 03, 2013 Rise Set
Actual Time 7:33 AM CST 5:34 PM CST
Civil Twilight 7:03 AM CST 6:04 PM CST
Nautical Twilight 6:29 AM CST 6:38 PM CST
Astronomical Twilight 5:55 AM CST 7:12 PM CST
Moon 1:03 AM CST (2/3) 11:10 AM CST (2/3)
Length of Visible Light 11h 00m
Length of Day
10h 00m
Waning Gibbous, 48% of the Moon is Illuminated
Feb 3
Waning Gibbous
Feb 10
New
Feb 17
First Quarter
Feb 25
Full
Mar 4
Last Quarter

Hourly Weather History & Observations

Time (CST) Temp. Windchill Dew Point Humidity Pressure Visibility Wind Dir Wind Speed Gust Speed Precip Events Conditions
12:13 AM 19.4 °F 2.8 °F 12.2 °F 74% 30.01 in - NW 21.9 mph 29.9 mph N/A   Overcast
12:33 AM 19.4 °F 4.1 °F 14.0 °F 80% 30.01 in - NW 18.4 mph 26.5 mph N/A   Overcast
12:52 AM 19.4 °F 5.5 °F 14.0 °F 80% 30.02 in - NW 15.0 mph 23.0 mph N/A   Overcast
1:13 AM 19.4 °F 2.1 °F 12.2 °F 74% 30.03 in - NW 24.2 mph - N/A   Overcast
1:33 AM 19.4 °F 4.1 °F 12.2 °F 74% 30.04 in - NW 18.4 mph 27.6 mph N/A   Overcast
1:52 AM 17.6 °F 1.7 °F 12.2 °F 79% 30.05 in - NW 18.4 mph 26.5 mph N/A   Overcast
2:13 AM 17.6 °F 0.5 °F 12.2 °F 79% 30.04 in - NW 21.9 mph 27.6 mph N/A   Overcast
2:33 AM 15.8 °F -2.7 °F 8.6 °F 73% 30.05 in - NW 24.2 mph 38.0 mph N/A   Scattered Clouds
2:52 AM 14.0 °F -2.0 °F 8.6 °F 79% 30.06 in - NW 16.1 mph - N/A   Unknown
3:13 AM 14.0 °F -1.4 °F 8.6 °F 79% 30.06 in - NW 15.0 mph 19.6 mph N/A   Unknown
3:32 AM 14.0 °F -2.0 °F 8.6 °F 79% 30.05 in - NW 16.1 mph - N/A   Mostly Cloudy
3:53 AM 14.0 °F -1.4 °F 8.6 °F 79% 30.07 in - WNW 15.0 mph 24.2 mph N/A   Clear
4:13 AM 14.0 °F -0.2 °F 8.6 °F 79% 30.06 in - WNW 12.7 mph 17.3 mph N/A   Clear
4:33 AM 12.2 °F -1.8 °F 8.6 °F 85% 30.06 in - NW 11.5 mph - N/A   Clear
4:52 AM 12.2 °F -1.0 °F 6.8 °F 79% 30.07 in - NW 10.4 mph - N/A   Scattered Clouds
5:13 AM 12.2 °F 0.7 °F 6.8 °F 79% 30.07 in - WNW 8.1 mph - N/A   Scattered Clouds
5:33 AM 12.2 °F -0.2 °F 6.8 °F 79% 30.07 in - WNW 9.2 mph - N/A   Clear
6:13 AM 12.2 °F -1.0 °F 8.6 °F 85% 30.06 in - WNW 10.4 mph - N/A   Clear
6:33 AM 12.2 °F -0.2 °F 6.8 °F 79% 30.06 in - West 9.2 mph - N/A   Clear
6:52 AM 12.2 °F 0.7 °F 6.8 °F 79% 30.06 in - West 8.1 mph - N/A   Scattered Clouds
7:13 AM 12.2 °F -1.0 °F 6.8 °F 79% 30.06 in - West 10.4 mph - N/A   Overcast
7:33 AM 12.2 °F 0.7 °F 6.8 °F 79% 30.06 in - West 8.1 mph - N/A   Overcast
7:52 AM 12.2 °F 0.7 °F 6.8 °F 79% 30.06 in - West 8.1 mph - N/A   Overcast
8:13 AM 12.2 °F 1.7 °F 6.8 °F 79% 30.05 in - West 6.9 mph - N/A   Mostly Cloudy
8:32 AM 14.0 °F 2.9 °F 8.6 °F 79% 30.06 in - West 8.1 mph - N/A   Overcast
8:52 AM 14.0 °F 2.9 °F 8.6 °F 79% 30.07 in - West 8.1 mph - N/A   Overcast
9:13 AM 15.8 °F 7.2 °F 8.6 °F 73% 30.06 in - West 5.8 mph - N/A   Overcast
9:32 AM 15.8 °F 8.6 °F 8.6 °F 73% 30.07 in - WNW 4.6 mph - N/A   Overcast
9:52 AM 15.8 °F 7.2 °F 8.6 °F 73% 30.07 in - West 5.8 mph - N/A   Overcast
10:13 AM 17.6 °F 9.3 °F 10.4 °F 73% 30.06 in - West 5.8 mph - N/A   Overcast
10:32 AM 17.6 °F 7.3 °F 10.4 °F 73% 30.05 in - West 8.1 mph - N/A   Overcast
10:53 AM 17.6 °F 8.2 °F 10.4 °F 73% 30.06 in - West 6.9 mph - N/A   Overcast
11:13 AM 19.4 °F 10.4 °F 10.4 °F 68% 30.05 in - WSW 6.9 mph - N/A   Overcast
11:32 AM 19.4 °F 12.8 °F 12.2 °F 74% 30.04 in - West 4.6 mph - N/A   Overcast
11:53 AM 19.4 °F 11.5 °F 12.2 °F 74% 30.03 in - West 5.8 mph - N/A   Overcast
12:12 PM 19.4 °F 14.3 °F 10.4 °F 68% 30.02 in - WSW 3.5 mph - N/A   Overcast
12:33 PM 21.2 °F 16.4 °F 12.2 °F 68% 30.01 in - WSW 3.5 mph - N/A   Overcast
12:53 PM 21.2 °F - 12.2 °F 68% 29.99 in - Calm Calm - N/A   Overcast
1:12 PM 23.0 °F 18.4 °F 14.0 °F 68% 29.97 in - ESE 3.5 mph - N/A   Overcast
1:33 PM 23.0 °F - 12.2 °F 63% 29.95 in - Calm Calm - N/A   Overcast
1:53 PM 23.0 °F 17.0 °F 14.0 °F 68% 29.95 in - East 4.6 mph - N/A   Overcast
2:13 PM 23.0 °F 18.4 °F 14.0 °F 68% 29.95 in - ESE 3.5 mph - N/A   Overcast
2:32 PM 23.0 °F 18.4 °F 14.0 °F 68% 29.94 in - ESE 3.5 mph - N/A   Overcast
2:53 PM 23.0 °F 17.0 °F 14.0 °F 68% 29.93 in - SE 4.6 mph - N/A   Overcast
3:13 PM 24.8 °F 17.9 °F 15.8 °F 69% 29.92 in - SE 5.8 mph - N/A   Overcast
3:32 PM 24.8 °F 16.1 °F 15.8 °F 69% 29.92 in - SE 8.1 mph - N/A   Overcast
3:53 PM 24.8 °F 16.9 °F 17.6 °F 74% 29.90 in - ESE 6.9 mph - N/A   Overcast
4:13 PM 26.6 °F 17.5 °F 17.6 °F 69% 29.89 in - ESE 9.2 mph - N/A   Overcast
4:32 PM 24.8 °F 14.6 °F 17.6 °F 74% 29.88 in - ESE 10.4 mph - N/A   Overcast
4:53 PM 24.8 °F 14.6 °F 17.6 °F 74% 29.88 in - East 10.4 mph - N/A   Overcast
5:13 PM 23.0 °F 12.4 °F 17.6 °F 80% 29.88 in - East 10.4 mph - N/A   Overcast
5:32 PM 23.0 °F 12.4 °F 17.6 °F 80% 29.86 in - East 10.4 mph - N/A   Overcast
5:53 PM 23.0 °F 11.7 °F 17.6 °F 80% 29.87 in - East 11.5 mph - N/A   Overcast
6:13 PM 23.0 °F 12.4 °F 17.6 °F 80% 29.86 in - East 10.4 mph - N/A   Overcast
6:32 PM 23.0 °F 11.7 °F 17.6 °F 80% 29.86 in - East 11.5 mph - N/A   Overcast
6:53 PM 23.0 °F 12.4 °F 17.6 °F 80% 29.85 in - East 10.4 mph - N/A   Overcast
7:13 PM 23.0 °F 11.1 °F 17.6 °F 80% 29.84 in - East 12.7 mph - N/A   Overcast
7:32 PM 21.2 °F 8.9 °F 17.6 °F 86% 29.84 in - East 12.7 mph - N/A   Mostly Cloudy
7:53 PM 21.2 °F 10.1 °F 17.6 °F 86% 29.83 in - East 10.4 mph - N/A   Overcast
8:13 PM 21.2 °F 10.1 °F 17.6 °F 86% 29.83 in - ENE 10.4 mph - N/A   Overcast
8:32 PM 21.2 °F 10.1 °F 17.6 °F 86% 29.83 in - ENE 10.4 mph - N/A   Overcast
8:53 PM 21.2 °F 8.9 °F 15.8 °F 80% 29.82 in - East 12.7 mph - N/A   Overcast
9:12 PM 21.2 °F 9.5 °F 15.8 °F 80% 29.82 in - ENE 11.5 mph - N/A   Overcast
9:33 PM 21.2 °F 9.5 °F 15.8 °F 80% 29.81 in - East 11.5 mph - N/A   Overcast
9:53 PM 21.2 °F 9.5 °F 15.8 °F 80% 29.80 in - ENE 11.5 mph - N/A   Overcast
10:13 PM 19.4 °F 5.5 °F 15.8 °F 86% 29.83 in - NE 15.0 mph - N/A   Unknown
10:32 PM 19.4 °F 5.0 °F 14.0 °F 80% 29.83 in - NNE 16.1 mph - N/A   Overcast
10:53 PM 19.4 °F 5.5 °F 14.0 °F 80% 29.83 in - NNE 15.0 mph - N/A   Overcast
11:12 PM 17.6 °F 2.2 °F 14.0 °F 86% 29.83 in - NNE 17.3 mph - N/A   Overcast
11:33 PM 17.6 °F 2.2 °F 14.0 °F 86% 29.83 in - NNE 17.3 mph - N/A   Overcast
11:53 PM 17.6 °F 1.3 °F 14.0 °F 86% 29.84 in - NNE 19.6 mph - N/A   Overcast